Regional Weather Roundup
Issued by NWS

Home | Current Version | Previous Version | Text Only | Print | Product List | Glossary On
Versions: 1 2 3 4 5 6 7 8 9 10 11 12 13 14 15 16 17 18 19 20 21 22 23 24 25 26 27 28 29 30 31 32 33 34 35 36 37 38 39 40 41 42 43 44 45 46 47 48 49 50
965
ASUS43 KMPX 021701
RWRMN
WEATHER ROUNDUP FOR MINNESOTA
NATIONAL WEATHER SERVICE TWIN CITIES/CHANHASSEN MN
1100 AM CST FRI DEC 02 2016


NOTE: "FAIR" INDICATES FEW OR NO CLOUDS BELOW 12,000 FEET WITH NO
SIGNIFICANT WEATHER AND/OR OBSTRUCTIONS TO VISIBILITY. N/A MEANS
CURRENT SKY AND/OR WEATHER CONDITIONS ARE NOT AVAILABLE.

MNZ060>063-068>070-021800-
   Twin Cities Metro

CITY           SKY/WX    TMP DP  RH WIND       PRES   REMARKS
TWIN CITIES    CLOUDY    32  22  66 NW8       30.23R WCI  25
CRYSTAL        CLOUDY    32  22  66 NW7       30.22R WCI  26
EDEN PRAIRIE   CLOUDY    33  22  63 W7        30.23R WCI  27
$$
MNZ001>005-007-008-013>017-022>024-027-028-021800-
   Northwest Minnesota

CITY           SKY/WX    TMP DP  RH WIND       PRES   REMARKS
PARK RAPIDS    CLOUDY    24  17  74 NW7       30.21S WCI  16
$$
MNZ006-009>011-018-025>026-021800-
   North Central Minnesota

CITY           SKY/WX    TMP DP  RH WIND       PRES   REMARKS
WASKISH        CLOUDY    21  19  93 W3        30.22R
LONGVILLE      CLOUDY    25  21  86 W7        30.21R WCI  17
CRANE LAKE     CLOUDY    25  21  86 CALM      30.21S
ORR            CLOUDY    25  21  86 CALM      30.16R
COOK           CLOUDY    25  21  86 N3        30.18S
$$
MNZ012-019>021-037-021800-
   Northeast Minnesota

CITY           SKY/WX    TMP DP  RH WIND       PRES   REMARKS
HIBBING        CLOUDY    25  21  85 NW8       30.18R WCI  16
GRAND MARAIS     N/A     32  23  69 CALM      30.14R
$$
MNZ029>031-032-039>041-046>048-054>057-064-021800-
   West Central Minnesota

CITY           SKY/WX    TMP DP  RH WIND       PRES   REMARKS
WHEATON        CLOUDY   N/A N/A N/A N9        30.29R
ELBOW LAKE     CLOUDY    26  21  82 N8        30.26R WCI  18
APPLETON       CLOUDY    30  21  69 N7        30.27R WCI  23
WILLMAR        CLOUDY    28  21  74 NW10      30.26R WCI  19
$$
MNZ033>034-036-042>043-049>051-058-059-021800-
   Central Minnesota

CITY           SKY/WX    TMP DP  RH WIND       PRES   REMARKS
BRAINERD       CLOUDY    26  21  81 W9        30.22S WCI  17
$$
MNZ037-044-045-052-053-021800-
   East Central Minnesota

CITY           SKY/WX    TMP DP  RH WIND       PRES   REMARKS
PRINCETON      CLOUDY    30  25  80 NW8       30.23R WCI  23
MORA           CLOUDY    30  23  74 NW6       30.23R WCI  24
CAMBRIDGE      CLOUDY    32  23  69 NW6       30.20S WCI  26
RUSH CITY      CLOUDY    30  25  80 NW7       30.22R WCI  23
CLOQUET        CLOUDY    27  21  80 NW10      30.17S WCI  17
$$
MNZ071>073-080-081-089-090-097-098-021800-
   Southwest Minnesota

CITY           SKY/WX    TMP DP  RH WIND       PRES   REMARKS
CANBY          CLOUDY    30  25  81 CALM      30.27S
JACKSON        CLOUDY    30  25  80 NW9       30.25R WCI  22
SLAYTON        CLOUDY    28  23  82 NW13      30.25R WCI  17
$$
MNZ065>067-074>077-082>085-091>093-021800-
   South Central Minnesota

CITY           SKY/WX    TMP DP  RH WIND       PRES   REMARKS
ST JAMES       CLOUDY    30  25  80 NW8       30.26R WCI  23
GLENCOE        CLOUDY    32  25  77 NW6       30.24R WCI  26
OWATONNA       CLOUDY    30  21  69 NW9       30.23R WCI  22
$$
MNZ078>079-086>088-094>096-021800-
   Southeast Minnesota

CITY           SKY/WX    TMP DP  RH WIND       PRES   REMARKS
RED WING       CLOUDY    34  21  60 W7        30.22R WCI  28
AUSTIN         CLOUDY    30  21  69 N8        30.22R WCI  23
$$
ABBREVIATIONS USED IN REMARKS
   TC - TEMPERATURES IN CELSIUS
  WCI - WIND CHILL INDEX
   HX - HEAT INDEX
  VSB - VISIBILITY
$$




USA.gov is the U.S. government's official web portal to all federal, state and local government web resources and services.